| time (UTC) | temp F | wind direction | speed MPH | gust MPH | rain 1hr in | rain 24hr in | rain mn in | humidity % | barometer mb |
| 20260506190020 | 66 | 191 | 2.0 | 13.0 | 0.01 | 0.01 | 0.01 | 75 | 1006.6 |
| 20260506184540 | 67 | 165 | 6.0 | 14.0 | 0.01 | 0.01 | 0.01 | 70 | 1006.8 |
| 20260506183002 | 68 | 243 | 6.0 | 15.0 | 0.00 | 0.00 | 0.00 | 66 | 1006.9 |
| 20260506181523 | 70 | 159 | 7.0 | 20.0 | 0.00 | 0.00 | 0.00 | 62 | 1007.0 |
| 20260506180050 | 70 | 160 | 6.0 | 18.0 | 0.00 | 0.00 | 0.00 | 60 | 1007.0 |
| 20260506174511 | 72 | 257 | 11.0 | 24.0 | 0.00 | 0.00 | 0.00 | 55 | 1007.0 |
| 20260506173034 | 72 | 184 | 10.0 | 20.0 | 0.00 | 0.00 | 0.00 | 53 | 1006.8 |
| 20260506171552 | 73 | 185 | 4.0 | 16.0 | 0.00 | 0.00 | 0.00 | 54 | 1007.0 |
| 20260506170011 | 72 | 155 | 10.0 | 20.0 | 0.00 | 0.00 | 0.00 | 55 | 1007.1 |
| 20260506164530 | 72 | 119 | 5.0 | 12.0 | 0.00 | 0.00 | 0.00 | 57 | 1007.3 |
| 20260506163104 | 71 | 200 | 10.0 | 15.0 | 0.00 | 0.00 | 0.00 | 58 | 1007.6 |
| 20260506161517 | 71 | 165 | 8.0 | 15.0 | 0.00 | 0.00 | 0.00 | 57 | 1007.8 |
| 20260506160041 | 71 | 192 | 6.0 | 16.0 | 0.00 | 0.00 | 0.00 | 59 | 1008.1 |
| 20260506154506 | 70 | 157 | 4.0 | 11.0 | 0.00 | 0.00 | 0.00 | 61 | 1008.4 |
| 20260506153023 | 69 | 172 | 7.0 | 11.0 | 0.00 | 0.00 | 0.00 | 62 | 1008.7 |
| 20260506151558 | 69 | 182 | 6.0 | 15.0 | 0.00 | 0.00 | 0.00 | 62 | 1008.8 |
| 20260506150017 | 70 | 218 | 8.0 | 19.0 | 0.00 | 0.00 | 0.00 | 61 | 1008.9 |
| 20260506144559 | 69 | 217 | 6.0 | 12.0 | 0.00 | 0.00 | 0.00 | 62 | 1009.1 |
| 20260506143015 | 69 | 208 | 5.0 | 14.0 | 0.00 | 0.00 | 0.00 | 63 | 1009.0 |
| 20260506141534 | 69 | 176 | 4.0 | 17.0 | 0.00 | 0.00 | 0.00 | 64 | 1008.9 |
| 20260506140053 | 69 | 151 | 10.0 | 16.0 | 0.00 | 0.00 | 0.00 | 66 | 1008.8 |
| 20260506134517 | 68 | 144 | 7.0 | 22.0 | 0.00 | 0.00 | 0.00 | 67 | 1008.8 |
| 20260506133037 | 67 | 199 | 4.0 | 15.0 | 0.00 | 0.00 | 0.00 | 70 | 1009.2 |
| 20260506131503 | 66 | 189 | 4.0 | 9.0 | 0.00 | 0.00 | 0.00 | 71 | 1009.4 |
| 20260506130017 | 65 | 213 | 5.0 | 14.0 | 0.00 | 0.00 | 0.00 | 72 | 1009.6 |
| 20260506124535 | 64 | 182 | 5.0 | 12.0 | 0.00 | 0.00 | 0.00 | 72 | 1009.7 |
| 20260506123003 | 64 | 155 | 6.0 | 15.0 | 0.00 | 0.00 | 0.00 | 73 | 1009.4 |
| 20260506121527 | 64 | 209 | 3.0 | 14.0 | 0.00 | 0.00 | 0.00 | 73 | 1009.8 |
| 20260506120051 | 64 | 206 | 9.0 | 13.0 | 0.00 | 0.00 | 0.00 | 73 | 1009.6 |
| 20260506114511 | 62 | 198 | 5.0 | 12.0 | 0.00 | 0.00 | 0.00 | 75 | 1009.8 |
| 20260506113035 | 62 | 173 | 7.0 | 13.0 | 0.00 | 0.00 | 0.00 | 75 | 1009.8 |
| 20260506111555 | 62 | 204 | 3.0 | 12.0 | 0.00 | 0.00 | 0.00 | 76 | 1010.0 |
| 20260506110019 | 61 | 184 | 1.0 | 8.0 | 0.00 | 0.00 | 0.00 | 76 | 1009.8 |
| 20260506104540 | 60 | 169 | 4.0 | 10.0 | 0.00 | 0.00 | 0.00 | 77 | 1009.9 |
| 20260506103011 | 60 | 213 | 3.0 | 11.0 | 0.00 | 0.00 | 0.00 | 77 | 1009.8 |
| 20260506101523 | 60 | 178 | 3.0 | 8.0 | 0.00 | 0.00 | 0.00 | 77 | 1009.8 |
| 20260506100050 | 60 | 160 | 3.0 | 8.0 | 0.00 | 0.00 | 0.00 | 77 | 1009.8 |
| 20260506094509 | 60 | 173 | 6.0 | 11.0 | 0.00 | 0.00 | 0.00 | 76 | 1009.9 |
| 20260506093024 | 60 | 186 | 4.0 | 7.0 | 0.00 | 0.00 | 0.00 | 75 | 1009.5 |
| 20260506091549 | 60 | 195 | 4.0 | 11.0 | 0.00 | 0.00 | 0.00 | 75 | 1009.7 |
| 20260506090018 | 61 | 165 | 3.0 | 11.0 | 0.00 | 0.00 | 0.00 | 74 | 1009.7 |
| 20260506084541 | 61 | 153 | 4.0 | 10.0 | 0.00 | 0.00 | 0.00 | 73 | 1009.7 |
| 20260506083053 | 62 | 207 | 4.0 | 12.0 | 0.00 | 0.00 | 0.00 | 72 | 1009.8 |
| 20260506081518 | 62 | 171 | 4.0 | 11.0 | 0.00 | 0.00 | 0.00 | 71 | 1009.8 |
| 20260506073016 | 63 | 144 | 3.0 | 9.0 | 0.00 | 0.00 | 0.00 | 69 | 1009.7 |
| 20260506071539 | 63 | 175 | 2.0 | 9.0 | 0.00 | 0.00 | 0.00 | 68 | 1009.6 |
| 20260506061508 | 64 | 165 | 5.0 | 9.0 | 0.00 | 0.00 | 0.00 | 64 | 1009.2 |
| 20260506044530 | 64 | 192 | 6.0 | 13.0 | 0.00 | 0.00 | 0.00 | 62 | 1009.7 |
| 20260506043052 | 64 | 180 | 6.0 | 11.0 | 0.00 | 0.00 | 0.00 | 62 | 1009.6 |
| 20260506041512 | 64 | 144 | 6.0 | 10.0 | 0.00 | 0.00 | 0.00 | 62 | 1009.6 |
| 20260506040034 | 64 | 187 | 3.0 | 8.0 | 0.00 | 0.00 | 0.00 | 62 | 1009.7 |
| 20260506034556 | 64 | 178 | 4.0 | 10.0 | 0.00 | 0.00 | 0.00 | 60 | 1009.6 |
| 20260506033018 | 65 | 191 | 2.0 | 7.0 | 0.00 | 0.00 | 0.00 | 59 | 1009.6 |
| 20260506031547 | 65 | 171 | 5.0 | 12.0 | 0.00 | 0.00 | 0.00 | 58 | 1009.6 |
| 20260506030059 | 66 | 188 | 4.0 | 8.0 | 0.00 | 0.00 | 0.00 | 57 | 1009.6 |
| 20260506024539 | 66 | 212 | 5.0 | 16.0 | 0.00 | 0.00 | 0.00 | 56 | 1009.6 |
| 20260506023050 | 67 | 185 | 5.0 | 12.0 | 0.00 | 0.00 | 0.00 | 56 | 1009.6 |
| 20260506021514 | 68 | 184 | 6.0 | 13.0 | 0.00 | 0.00 | 0.00 | 54 | 1009.6 |
| 20260506020036 | 69 | 163 | 6.0 | 12.0 | 0.00 | 0.00 | 0.00 | 53 | 1009.7 |
| 20260506014508 | 69 | 188 | 3.0 | 12.0 | 0.00 | 0.00 | 0.00 | 52 | 1009.5 |
| 20260506013034 | 70 | 255 | 6.0 | 15.0 | 0.00 | 0.00 | 0.00 | 51 | 1009.4 |
| 20260506011606 | 70 | 230 | 3.0 | 9.0 | 0.00 | 0.00 | 0.00 | 50 | 1009.3 |
| 20260506010020 | 70 | 235 | 3.0 | 16.0 | 0.00 | 0.00 | 0.00 | 49 | 1008.6 |
| 20260506004544 | 71 | 176 | 7.0 | 14.0 | 0.00 | 0.00 | 0.00 | 48 | 1008.5 |
| 20260506003014 | 71 | 192 | 5.0 | 16.0 | 0.00 | 0.00 | 0.00 | 48 | 1008.2 |
| 20260506001539 | 72 | 179 | 6.0 | 14.0 | 0.00 | 0.00 | 0.00 | 47 | 1007.7 |
| 20260506000100 | 72 | 234 | 6.0 | 20.0 | 0.00 | 0.00 | 0.00 | 45 | 1007.5 |
| 20260506000002 | 72 | 176 | 3.0 | 20.0 | 0.00 | 0.00 | 0.00 | 46 | 1007.5 |
| 20260505234524 | 73 | 221 | 8.0 | 20.0 | 0.00 | 0.00 | 0.00 | 45 | 1007.4 |
| 20260505233052 | 74 | 148 | 9.0 | 24.0 | 0.00 | 0.00 | 0.00 | 44 | 1007.0 |
| 20260505231517 | 75 | 198 | 7.0 | 22.0 | 0.00 | 0.00 | 0.00 | 43 | 1006.9 |
| 20260505230042 | 76 | 191 | 9.0 | 21.0 | 0.00 | 0.00 | 0.00 | 42 | 1006.5 |
| 20260505224510 | 77 | 180 | 7.0 | 18.0 | 0.00 | 0.00 | 0.00 | 40 | 1006.4 |
| 20260505223033 | 78 | 202 | 12.0 | 24.0 | 0.00 | 0.00 | 0.00 | 39 | 1006.0 |
| 20260505221559 | 79 | 169 | 9.0 | 22.0 | 0.00 | 0.00 | 0.00 | 38 | 1005.6 |
| 20260505220019 | 79 | 168 | 13.0 | 24.0 | 0.00 | 0.00 | 0.00 | 38 | 1005.3 |
| 20260505214611 | 80 | 173 | 8.0 | 21.0 | 0.00 | 0.00 | 0.00 | 35 | 1005.4 |
| 20260505213010 | 81 | 232 | 9.0 | 29.0 | 0.00 | 0.00 | 0.00 | 34 | 1005.2 |
| 20260505211538 | 82 | 207 | 9.0 | 21.0 | 0.00 | 0.00 | 0.00 | 32 | 1005.0 |
| 20260505210059 | 82 | 169 | 11.0 | 24.0 | 0.00 | 0.00 | 0.00 | 30 | 1005.0 |
| 20260505204524 | 82 | 166 | 7.0 | 23.0 | 0.00 | 0.00 | 0.00 | 30 | 1004.9 |
| 20260505203043 | 82 | 202 | 8.0 | 25.0 | 0.00 | 0.00 | 0.00 | 32 | 1004.9 |
| 20260505201513 | 83 | 186 | 10.0 | 25.0 | 0.00 | 0.00 | 0.00 | 31 | 1004.9 |
| 20260505200040 | 84 | 152 | 6.0 | 25.0 | 0.00 | 0.00 | 0.00 | 33 | 1005.0 |
| 20260505194557 | 83 | 227 | 9.0 | 26.0 | 0.00 | 0.00 | 0.00 | 32 | 1005.2 |
| 20260505193017 | 83 | 200 | 10.0 | 24.0 | 0.00 | 0.00 | 0.00 | 32 | 1005.1 |
| 20260505191544 | 82 | 197 | 8.0 | 26.0 | 0.00 | 0.00 | 0.00 | 35 | 1005.5 |